7 * 24
多渠道服务支持
STARLINK-36799(NORAD编号67958)是SpaceX星链(Starlink)低轨卫星互联网星座中的一颗卫星,属于星链项目的组网卫星。星链星座整体部署在近地轨道,该卫星初始轨道高度约550公里,在SpaceX 2026年降轨计划中,已将轨道高度调整至480公里,以此缩短故障卫星离轨时间、降低太空碰撞风险。 作为星链通信卫星,它配备相控阵天线与氩气推进系统,支持星间激光链路传输,可提供低时延宽带互联网服务,属于第二代星链技术体系,助力全球覆盖的卫星通信网络构建,为地面盲区提供网络接入支持。
美国
(US)
| 数据来源 | 国际轨道数据 |
| 星历时间: | 2026-06-11T16:01:47+0800 1天前 查看轨道信息 |
| 半长轴: | 6861.15km |
| 偏心率: | 0.0000813 |
| 轨道倾角: | 43.006° |
| 近地点辐角 | 260.504° |
| 升交点赤经 | 21.751° |
| 平近点角 | 99.572° |
| 近地点: | 482.455km |
| 远地点: | 483.571km |
| 周期: | 94.266分钟 |
| 每日圈数: | 15.275923 |